{"data":{"norad_id":68942,"intl_designator":"2026-098Z","name":"KUIPER-00440","alt_names":[],"object_type":"PAYLOAD","status":"ACTIVE","operator":null,"country":"US","launch_date":"2026-04-30","launch_site_code":"FRGUI","launch_vehicle":null,"mission":null,"orbit_class":"UNKNOWN","rcs_meters":null,"size_class":null,"mass_kg":null,"dimensions":null,"purposes":[],"wikipedia_slug":null,"has_3d_model":false,"image_url":null,"decayed_at":null,"tle_current":{"epoch":"2026-09-19T22:37:09.230016Z","epoch_age_seconds":67426,"freshness":"FRESH","line1":"1 68942U 26098Z   26262.94246794  .00002022  00000+0  29414-3 0  9995","line2":"2 68942  51.9048 349.1672 0000463   6.7386 353.3582 14.79932508 21654","mean_motion":14.79932508,"eccentricity":4.63e-5,"inclination_deg":51.9048,"raan_deg":349.1672,"arg_perigee_deg":6.7386,"mean_anomaly_deg":353.3582,"bstar":0.00029414,"rev_number":2165,"period_min":97.301734519369,"perigee_km":629.21272698287,"apogee_km":629.86163761215,"semimajor_km":7007.6741822975,"source":"CELESTRAK","updated_at":"2026-09-20T09:00:24.582728Z"}}}